WA2QAO Weather Reports


Display with metric or nautical units.
time (UTC)temp
F
wind
direction
speed
MPH
gust
MPH
rain 1hr
in
rain 24hr
in
rain mn
in
humidity
%
barometer
mb
20260503221019 0 348 3.0 5.0 0.00 0.00 0.00 1007.3
20260503220515 0 348 5.0 8.0 0.00 0.00 0.00 1007.4
20260503220012 0 331 2.0 3.0 0.00 0.00 0.00 1007.3
20260503215509 0 335 5.0 8.0 0.00 0.00 0.00 1007.4
20260503215006 0 335 1.0 3.0 0.00 0.00 0.00 1007.4
20260503214504 0 334 1.0 6.0 0.00 0.00 0.00 1007.4
20260503214000 0 335 3.0 5.0 0.00 0.00 0.00 1007.7
20260503213459 0 342 3.0 6.0 0.00 0.00 0.00 1007.5
20260503212955 0 333 2.0 6.0 0.00 0.00 0.00 1007.4
20260503212453 0 330 3.0 5.0 0.00 0.00 0.00 1007.5
20260503211950 0 332 4.0 6.0 0.00 0.00 0.00 1007.4
20260503211447 0 338 2.0 9.0 0.00 0.00 0.00 1007.6
20260503210943 0 335 3.0 5.0 0.00 0.00 0.00 1007.6
20260503210440 0 334 3.0 5.0 0.00 0.00 0.00 1007.6
20260503205934 0 334 2.0 5.0 0.00 0.00 0.00 1007.7
20260503205432 0 334 1.0 3.0 0.00 0.00 0.00 1007.7
20260503204927 0 331 1.0 2.0 0.00 0.00 0.00 1007.8
20260503204425 0 333 2.0 3.0 0.00 0.00 0.00 1007.8
20260503203922 0 332 3.0 3.0 0.00 0.00 0.00 1008.0
20260503203419 0 325 4.0 7.0 0.00 0.00 0.00 1007.9
20260503202916 0 333 3.0 5.0 0.00 0.00 0.00 1008.0
20260503202414 0 333 1.0 3.0 0.00 0.00 0.00 1007.8
20260503201913 0 333 2.0 2.0 0.00 0.00 0.00 1008.0
20260503201409 0 332 1.0 2.0 0.00 0.00 0.00 1008.0
20260503200907 0 333 1.0 2.0 0.00 0.00 0.00 1007.8
20260503200403 0 333 0.0 2.0 0.00 0.00 0.00 1008.0
20260503195900 0 340 2.0 5.0 0.00 0.00 0.00 1008.2
20260503195356 0 341 3.0 3.0 0.00 0.00 0.00 1008.2
20260503194853 0 334 3.0 5.0 0.00 0.00 0.00 1008.2
20260503194349 0 342 2.0 5.0 0.00 0.00 0.00 1008.4
20260503193846 0 335 0.0 2.0 0.00 0.00 0.00 1008.3
20260503193342 0 333 2.0 2.0 0.00 0.00 0.00 1008.6
20260503192838 0 338 1.0 2.0 0.00 0.00 0.00 1008.7
20260503192333 0 333 1.0 3.0 0.00 0.00 0.00 1008.4
20260503191830 0 333 2.0 3.0 0.00 0.00 0.00 1008.3
20260503191327 0 334 0.0 3.0 0.00 0.00 0.00 1008.5
20260503190824 0 334 1.0 2.0 0.00 0.00 0.00 1008.4
20260503190321 0 332 2.0 2.0 0.00 0.00 0.00 1008.4
20260503185818 0 332 1.0 2.0 0.00 0.00 0.00 1008.7
20260503185314 0 336 1.0 2.0 0.00 0.00 0.00 1008.7
20260503184808 0 334 0.0 1.0 0.00 0.00 0.00 1008.6
20260503184305 0 344 2.0 3.0 0.00 0.00 0.00 1008.3
20260503183800 0 338 1.0 2.0 0.00 0.00 0.00 1008.6
20260503183258 0 348 1.0 5.0 0.00 0.00 0.00 1008.6
20260503182755 0 338 1.0 3.0 0.00 0.00 0.00 1008.6
20260503182254 0 334 2.0 2.0 0.00 0.00 0.00 1008.7
20260503181750 0 338 1.0 2.0 0.00 0.00 0.00 1008.6
20260503181248 0 334 1.0 2.0 0.00 0.00 0.00 1008.9
20260503180744 0 336 1.0 3.0 0.00 0.00 0.00 1008.7
20260503180242 0 340 3.0 5.0 0.00 0.00 0.00 1008.8
20260503175738 0 334 0.0 3.0 0.00 0.00 0.00 1008.7
20260503175237 0 347 1.0 2.0 0.00 0.00 0.00 1008.5
20260503174732 0 340 1.0 2.0 0.00 0.00 0.00 1008.7
20260503174230 0 340 0.0 2.0 0.00 0.00 0.00 1008.9
20260503173725 0 338 1.0 1.0 0.00 0.00 0.00 1008.8
20260503173221 0 333 1.0 1.0 0.00 0.00 0.00 1008.8
20260503172718 0 334 0.0 3.0 0.00 0.00 0.00 1008.7
20260503172215 0 339 2.0 3.0 0.00 0.00 0.00 1008.7
20260503171711 0 337 1.0 3.0 0.00 0.00 0.00 1008.6
20260503171209 0 340 1.0 3.0 0.00 0.00 0.00 1008.7
20260503170706 0 343 1.0 1.0 0.00 0.00 0.00 1008.8
20260503170203 0 335 1.0 2.0 0.00 0.00 0.00 1008.5
20260503160124 0 340 2.0 3.0 0.00 0.00 0.00 1008.8
20260503150554 0 336 1.0 3.0 0.00 0.00 0.00 1008.9
20260503130944 0 334 1.0 2.0 0.00 0.00 0.00 1008.2
20260503130442 0 336 0.0 1.0 0.00 0.00 0.00 1008.3
20260503110332 0 336 0.0 0.0 0.00 0.00 0.00 1008.9
20260503100258 0 336 0.0 0.0 0.00 0.00 0.00 1009.3
20260503090218 0 335 0.0 0.0 0.00 0.00 0.00 1009.9
20260503081145 0 336 0.0 0.0 0.00 0.00 0.00 1010.1
20260503080641 0 336 0.0 0.0 0.00 0.00 0.00 1010.2
20260503080138 0 336 0.0 0.0 0.00 0.00 0.00 1010.2
20260503072615 0 336 0.0 0.0 0.00 0.00 0.00 1010.2
20260503072112 0 336 0.0 0.0 0.00 0.00 0.00 1010.3
20260503071609 0 336 0.0 0.0 0.00 0.00 0.00 1010.3
20260503071105 0 336 0.0 0.0 0.00 0.00 0.00 1010.4
20260503070602 0 336 0.0 0.0 0.00 0.00 0.00 1010.6
20260503055021 0 336 0.0 0.0 0.00 0.00 0.00 1011.0
20260503054517 0 335 0.0 0.0 0.00 0.00 0.00 1010.9
20260503054014 0 335 0.0 0.0 0.00 0.00 0.00 1011.0
20260503053512 0 336 0.0 0.0 0.00 0.00 0.00 1010.9
20260503053010 0 335 0.0 0.0 0.00 0.00 0.00 1011.1
20260503052506 0 336 0.0 0.0 0.00 0.00 0.00 1010.9
20260503052002 0 336 0.0 0.0 0.00 0.00 0.00 1011.0
20260503051458 0 337 0.0 0.0 0.00 0.00 0.00 1010.8
20260503050956 0 335 0.0 0.0 0.00 0.00 0.00 1010.7
20260503050451 0 335 0.0 0.0 0.00 0.00 0.00 1010.8
20260503045949 0 335 0.0 0.0 0.00 0.00 0.00 1010.9
20260503045446 0 335 0.0 1.0 0.00 0.00 0.00 1010.8
20260503044943 0 336 0.0 0.0 0.00 0.00 0.00 1010.9
20260503044440 0 335 0.0 3.0 0.00 0.00 0.00 1011.0
20260503043938 0 335 0.0 2.0 0.00 0.00 0.00 1010.7
20260503043433 0 336 0.0 0.0 0.00 0.00 0.00 1010.7
20260503042930 0 344 1.0 1.0 0.00 0.00 0.00 1010.5
20260503042427 0 334 0.0 0.0 0.00 0.00 0.00 1010.5
20260503041924 0 336 0.0 1.0 0.00 0.00 0.00 1010.5
20260503041420 0 335 0.0 1.0 0.00 0.00 0.00 1010.5
20260503040918 0 334 0.0 1.0 0.00 0.00 0.00 1010.5
20260503040415 0 340 1.0 2.0 0.00 0.00 0.00 1010.2
20260503035912 0 335 0.0 2.0 0.00 0.00 0.00 1010.2
20260503035409 0 339 0.0 2.0 0.00 0.00 0.00 1010.1
20260503034906 0 335 0.0 1.0 0.00 0.00 0.00 1010.0
20260503034404 0 338 0.0 2.0 0.00 0.00 0.00 1009.9
20260503033901 0 346 0.0 2.0 0.00 0.00 0.00 1009.9
20260503033358 0 330 0.0 2.0 0.00 0.00 0.00 1010.0
20260503032856 0 334 1.0 2.0 0.00 0.00 0.00 1009.9
20260503032355 0 323 1.0 3.0 0.00 0.00 0.00 1010.0
20260503031852 0 336 0.0 3.0 0.00 0.00 0.00 1009.9
20260503031349 0 335 0.0 2.0 0.00 0.00 0.00 1009.8
20260503030845 0 342 1.0 5.0 0.00 0.00 0.00 1009.9
20260503030342 0 330 1.0 3.0 0.00 0.00 0.00 1009.8
20260503025839 0 333 0.0 2.0 0.00 0.00 0.00 1009.8
20260503025336 0 334 0.0 1.0 0.00 0.00 0.00 1009.9
20260503024833 0 338 0.0 1.0 0.00 0.00 0.00 1009.9
20260503024330 0 334 0.0 1.0 0.00 0.00 0.00 1009.8
20260503023827 0 336 0.0 0.0 0.00 0.00 0.00 1009.8
20260503023324 0 335 0.0 2.0 0.00 0.00 0.00 1010.0
20260503022821 0 335 0.0 2.0 0.00 0.00 0.00 1010.0
20260503022320 0 334 0.0 1.0 0.00 0.00 0.00 1009.8
20260503021817 0 335 0.0 1.0 0.00 0.00 0.00 1009.9
20260503021313 0 335 1.0 2.0 0.00 0.00 0.00 1010.0
20260503020811 0 335 0.0 2.0 0.00 0.00 0.00 1010.1
20260503020309 0 335 1.0 2.0 0.00 0.00 0.00 1010.1
20260503015804 0 338 1.0 3.0 0.00 0.00 0.00 1010.1
20260503015305 0 336 1.0 5.0 0.00 0.00 0.00 1010.0
20260503014757 0 335 2.0 5.0 0.00 0.00 0.00 1010.3
20260503014255 0 335 1.0 3.0 0.00 0.00 0.00 1010.1
20260503013752 0 334 1.0 3.0 0.00 0.00 0.00 1009.9
20260503013250 0 342 1.0 3.0 0.00 0.00 0.00 1010.0
20260503012747 0 330 1.0 5.0 0.00 0.00 0.00 1009.9
20260503012244 0 350 2.0 6.0 0.00 0.00 0.00 1010.1
20260503011741 0 334 2.0 3.0 0.00 0.00 0.00 1010.1
20260503011238 0 335 2.0 5.0 0.00 0.00 0.00 1010.3
20260503010734 0 334 1.0 3.0 0.00 0.00 0.00 1010.2
20260503010231 0 335 1.0 3.0 0.00 0.00 0.00 1009.9
20260503005729 0 335 2.0 5.0 0.00 0.00 0.00 1010.1
20260503005226 0 334 1.0 2.0 0.00 0.00 0.00 1010.1
20260503004721 0 336 3.0 5.0 0.00 0.00 0.00 1010.2
20260503004220 0 334 2.0 8.0 0.00 0.00 0.00 1010.2
20260503003717 0 325 3.0 5.0 0.00 0.00 0.00 1010.4
20260503003214 0 331 3.0 6.0 0.00 0.00 0.00 1010.3
20260503002711 0 333 1.0 2.0 0.00 0.00 0.00 1010.4
20260503002208 0 347 1.0 3.0 0.00 0.00 0.00 1010.5
20260503001703 0 336 1.0 3.0 0.00 0.00 0.00 1010.6
20260503001200 0 325 3.0 7.0 0.00 0.00 0.00 1010.4
20260503000658 0 331 1.0 3.0 0.00 0.00 0.00 1010.4
20260503000155 0 335 1.0 2.0 0.00 0.00 0.00 1010.5
20260502235652 0 332 2.0 6.0 0.00 0.00 0.00 1010.4
20260502235150 0 358 2.0 5.0 0.00 0.00 0.00 1010.3
20260502234646 0 334 2.0 6.0 0.00 0.00 0.00 1010.4
20260502234144 0 334 3.0 7.0 0.00 0.00 0.00 1010.5
20260502233639 0 333 1.0 2.0 0.00 0.00 0.00 1010.3
20260502233136 0 331 4.0 9.0 0.00 0.00 0.00 1010.5
20260502232632 0 332 2.0 7.0 0.00 0.00 0.00 1010.5
20260502232130 0 336 4.0 7.0 0.00 0.00 0.00 1010.7
20260502231626 0 329 3.0 5.0 0.00 0.00 0.00 1011.0
20260502231124 0 333 1.0 6.0 0.00 0.00 0.00 1011.0
20260502230622 0 334 1.0 6.0 0.00 0.00 0.00 1011.2
20260502230120 0 338 3.0 5.0 0.00 0.00 0.00 1011.0
20260502225615 0 348 2.0 3.0 0.00 0.00 0.00 1010.8
20260502225113 0 332 2.0 5.0 0.00 0.00 0.00 1010.9
20260502224609 0 345 2.0 7.0 0.00 0.00 0.00 1011.0
20260502224106 0 352 1.0 6.0 0.00 0.00 0.00 1011.0
20260502223604 0 334 2.0 7.0 0.00 0.00 0.00 1010.8
20260502223102 0 334 4.0 7.0 0.00 0.00 0.00 1011.0
20260502222559 0 336 3.0 3.0 0.00 0.00 0.00 1011.1
20260502222055 0 333 1.0 3.0 0.00 0.00 0.00 1011.4
20260502221551 0 333 3.0 5.0 0.00 0.00 0.00 1011.2